| time (UTC) | temp C | wind direction | speed KPH | gust KPH | rain 1hr cm | rain 24hr cm | rain mn cm | humidity % | barometer mb |
| 20260902004109 | 13 | 247 | 14.5 | 17.7 | 0.00 | 0.00 | 0.00 | 7 | 1009.2 |
| 20260902003554 | 13 | 247 | 14.5 | 19.3 | 0.00 | 0.00 | 0.00 | 7 | 1008.8 |
| 20260902003033 | 13 | 247 | 12.9 | 16.1 | 0.00 | 0.00 | 0.00 | 7 | 1008.8 |
| 20260902003018 | 13 | 225 | 16.1 | 20.9 | 0.00 | 0.00 | 0.00 | 7 | 1008.5 |
| 20260902002457 | 13 | 225 | 16.1 | 20.9 | 0.00 | 0.00 | 0.00 | 7 | 1009.1 |
| 20260902001941 | 13 | 270 | 14.5 | 20.9 | 0.00 | 0.00 | 0.00 | 7 | 1009.1 |
| 20260902001426 | 13 | 247 | 14.5 | 20.9 | 0.00 | 0.00 | 0.00 | 7 | 1008.5 |
| 20260902000905 | 13 | 247 | 12.9 | 17.7 | 0.00 | 0.00 | 0.00 | 7 | 1008.4 |
| 20260902000850 | 13 | 270 | 12.9 | 17.7 | 0.00 | 0.00 | 0.00 | 7 | 1008.4 |
| 20260902000337 | 14 | 247 | 14.5 | 19.3 | 0.00 | 0.00 | 0.00 | 7 | 1008.3 |
| 20260901235820 | 13 | 247 | 12.9 | 19.3 | 0.00 | 0.00 | 0.00 | 7 | 1008.5 |
| 20260901235259 | 14 | 247 | 14.5 | 20.9 | 0.00 | 0.00 | 0.00 | 7 | 1008.5 |
| 20260901234737 | 14 | 270 | 9.7 | 14.5 | 0.00 | 0.00 | 0.00 | 7 | 1008.3 |
| 20260901234722 | 13 | 247 | 12.9 | 17.7 | 0.00 | 0.00 | 0.00 | 7 | 1008.3 |
| 20260901234207 | 14 | 247 | 14.5 | 22.5 | 0.00 | 0.00 | 0.00 | 7 | 1008.6 |
| 20260901233646 | 13 | 270 | 14.5 | 22.5 | 0.00 | 0.00 | 0.00 | 7 | 1008.5 |
| 20260901233131 | 13 | 247 | 14.5 | 20.9 | 0.00 | 0.00 | 0.00 | 7 | 1008.6 |
| 20260901232609 | 13 | 247 | 12.9 | 16.1 | 0.00 | 0.00 | 0.00 | 7 | 1008.4 |
| 20260901232554 | 13 | 247 | 14.5 | 22.5 | 0.00 | 0.00 | 0.00 | 7 | 1008.7 |
| 20260901232033 | 13 | 247 | 12.9 | 19.3 | 0.00 | 0.00 | 0.00 | 7 | 1008.9 |
| 20260901231518 | 14 | 225 | 14.5 | 22.5 | 0.00 | 0.00 | 0.00 | 7 | 1009.1 |
| 20260901231003 | 14 | 270 | 12.9 | 17.7 | 0.00 | 0.00 | 0.00 | 7 | 1008.7 |
| 20260901230442 | 14 | 247 | 12.9 | 16.1 | 0.00 | 0.00 | 0.00 | 7 | 1008.0 |
| 20260901230418 | 14 | 225 | 12.9 | 17.7 | 0.00 | 0.00 | 0.00 | 7 | 1007.8 |
| 20260901225903 | 14 | 225 | 11.3 | 16.1 | 0.00 | 0.00 | 0.00 | 7 | 1007.9 |
| 20260901225348 | 14 | 225 | 11.3 | 16.1 | 0.00 | 0.00 | 0.00 | 6 | 1009.0 |
| 20260901224827 | 14 | 247 | 12.9 | 16.1 | 0.00 | 0.00 | 0.00 | 7 | 1008.9 |
| 20260901224810 | 14 | 225 | 11.3 | 20.9 | 0.00 | 0.00 | 0.00 | 7 | 1008.7 |
| 20260901224255 | 15 | 247 | 11.3 | 16.1 | 0.00 | 0.00 | 0.00 | 7 | 1007.6 |
| 20260901223734 | 15 | 247 | 12.9 | 17.7 | 0.00 | 0.00 | 0.00 | 7 | 1007.7 |
| 20260901223219 | 15 | 225 | 11.3 | 16.1 | 0.00 | 0.00 | 0.00 | 7 | 1007.8 |
| 20260901222658 | 15 | 270 | 9.7 | 14.5 | 0.00 | 0.00 | 0.00 | 7 | 1008.0 |
| 20260901222642 | 15 | 247 | 12.9 | 17.7 | 0.00 | 0.00 | 0.00 | 7 | 1007.8 |
| 20260901222121 | 15 | 225 | 12.9 | 19.3 | 0.00 | 0.00 | 0.00 | 7 | 1007.7 |
| 20260901221606 | 15 | 247 | 14.5 | 19.3 | 0.00 | 0.00 | 0.00 | 7 | 1007.6 |
| 20260901221051 | 15 | 247 | 12.9 | 17.7 | 0.00 | 0.00 | 0.00 | 6 | 1007.9 |
| 20260901220530 | 15 | 270 | 9.7 | 12.9 | 0.00 | 0.00 | 0.00 | 6 | 1007.6 |
| 20260901220507 | 15 | 247 | 12.9 | 17.7 | 0.00 | 0.00 | 0.00 | 6 | 1008.1 |
| 20260901215952 | 15 | 247 | 11.3 | 16.1 | 0.00 | 0.00 | 0.00 | 6 | 1007.8 |
| 20260901215437 | 15 | 270 | 9.7 | 16.1 | 0.00 | 0.00 | 0.00 | 6 | 1007.8 |
| 20260901214916 | 16 | 270 | 9.7 | 11.3 | 0.00 | 0.00 | 0.00 | 6 | 1007.4 |
| 20260901214859 | 16 | 270 | 8.0 | 12.9 | 0.00 | 0.00 | 0.00 | 6 | 1007.5 |
| 20260901214344 | 16 | 225 | 9.7 | 14.5 | 0.00 | 0.00 | 0.00 | 6 | 1007.8 |
| 20260901213823 | 16 | 270 | 9.7 | 16.1 | 0.00 | 0.00 | 0.00 | 6 | 1007.0 |
| 20260901213308 | 16 | 247 | 9.7 | 12.9 | 0.00 | 0.00 | 0.00 | 6 | 1006.8 |
| 20260901212747 | 16 | 270 | 6.4 | 8.0 | 0.00 | 0.00 | 0.00 | 6 | 1006.9 |
| 20260901212730 | 16 | 247 | 9.7 | 14.5 | 0.00 | 0.00 | 0.00 | 6 | 1006.6 |
| 20260901212209 | 16 | 270 | 9.7 | 16.1 | 0.00 | 0.00 | 0.00 | 6 | 1006.9 |
| 20260901211654 | 16 | 270 | 9.7 | 14.5 | 0.00 | 0.00 | 0.00 | 6 | 1006.9 |
| 20260901211133 | 16 | 270 | 8.0 | 9.7 | 0.00 | 0.00 | 0.00 | 6 | 1006.6 |
| 20260901211116 | 16 | 270 | 9.7 | 14.5 | 0.00 | 0.00 | 0.00 | 6 | 1006.7 |
| 20260901210555 | 16 | 270 | 9.7 | 14.5 | 0.00 | 0.00 | 0.00 | 6 | 1006.8 |
| 20260901210040 | 16 | 247 | 9.7 | 14.5 | 0.00 | 0.00 | 0.00 | 6 | 1006.7 |
| 20260901205525 | 16 | 247 | 8.0 | 12.9 | 0.00 | 0.00 | 0.00 | 6 | 1007.0 |
| 20260901205004 | 16 | 270 | 8.0 | 9.7 | 0.00 | 0.00 | 0.00 | 6 | 1006.8 |
| 20260901204940 | 16 | 270 | 8.0 | 12.9 | 0.00 | 0.00 | 0.00 | 6 | 1006.8 |
| 20260901204425 | 17 | 270 | 9.7 | 14.5 | 0.00 | 0.00 | 0.00 | 6 | 1006.8 |
| 20260901203910 | 17 | 270 | 9.7 | 14.5 | 0.00 | 0.00 | 0.00 | 6 | 1006.6 |
| 20260901203349 | 17 | 247 | 6.4 | 8.0 | 0.00 | 0.00 | 0.00 | 6 | 1006.7 |
| 20260901203325 | 17 | 247 | 9.7 | 14.5 | 0.00 | 0.00 | 0.00 | 6 | 1006.7 |
| 20260901202810 | 17 | 270 | 8.0 | 12.9 | 0.00 | 0.00 | 0.00 | 6 | 1006.6 |
| 20260901202255 | 16 | 247 | 9.7 | 14.5 | 0.00 | 0.00 | 0.00 | 6 | 1006.8 |
| 20260901201734 | 16 | 247 | 11.3 | 14.5 | 0.00 | 0.00 | 0.00 | 6 | 1006.4 |
| 20260901201717 | 16 | 247 | 9.7 | 14.5 | 0.00 | 0.00 | 0.00 | 6 | 1006.5 |
| 20260901201156 | 17 | 225 | 8.0 | 12.9 | 0.00 | 0.00 | 0.00 | 6 | 1007.2 |
| 20260901200641 | 17 | 247 | 9.7 | 12.9 | 0.00 | 0.00 | 0.00 | 6 | 1006.3 |
| 20260901200126 | 17 | 225 | 8.0 | 11.3 | 0.00 | 0.00 | 0.00 | 6 | 1006.0 |
| 20260901195605 | 17 | 247 | 8.0 | 9.7 | 0.00 | 0.00 | 0.00 | 6 | 1006.0 |
| 20260901195542 | 17 | 247 | 8.0 | 12.9 | 0.00 | 0.00 | 0.00 | 5 | 1006.3 |
| 20260901195027 | 17 | 247 | 8.0 | 11.3 | 0.00 | 0.00 | 0.00 | 5 | 1006.2 |
| 20260901194512 | 17 | 225 | 6.4 | 9.7 | 0.00 | 0.00 | 0.00 | 5 | 1006.7 |
| 20260901193951 | 17 | 247 | 4.8 | 6.4 | 0.00 | 0.00 | 0.00 | 5 | 1006.1 |
| 20260901193926 | 17 | 270 | 6.4 | 9.7 | 0.00 | 0.00 | 0.00 | 5 | 1006.3 |
| 20260901193411 | 17 | 247 | 6.4 | 8.0 | 0.00 | 0.00 | 0.00 | 5 | 1006.5 |
| 20260901192856 | 17 | 225 | 6.4 | 8.0 | 0.00 | 0.00 | 0.00 | 5 | 1005.8 |
| 20260901192335 | 17 | 247 | 4.8 | 4.8 | 0.00 | 0.00 | 0.00 | 5 | 1006.9 |
| 20260901192318 | 17 | 247 | 4.8 | 8.0 | 0.00 | 0.00 | 0.00 | 5 | 1006.7 |
| 20260901191803 | 17 | 225 | 4.8 | 8.0 | 0.00 | 0.00 | 0.00 | 5 | 1007.0 |
| 20260901191243 | 17 | 247 | 6.4 | 9.7 | 0.00 | 0.00 | 0.00 | 5 | 1005.9 |
| 20260901190727 | 17 | 247 | 6.4 | 8.0 | 0.00 | 0.00 | 0.00 | 5 | 1006.9 |
| 20260901190206 | 18 | 247 | 4.8 | 3.2 | 0.00 | 0.00 | 0.00 | 5 | 1006.4 |
| 20260901190150 | 18 | 225 | 4.8 | 6.4 | 0.00 | 0.00 | 0.00 | 5 | 1006.7 |
| 20260901185629 | 18 | 270 | 4.8 | 9.7 | 0.00 | 0.00 | 0.00 | 5 | 1005.4 |
| 20260901185114 | 18 | 270 | 6.4 | 11.3 | 0.00 | 0.00 | 0.00 | 5 | 1005.8 |
| 20260901184559 | 18 | 270 | 6.4 | 11.3 | 0.00 | 0.00 | 0.00 | 5 | 1005.8 |
| 20260901184038 | 18 | 270 | 4.8 | 4.8 | 0.00 | 0.00 | 0.00 | 5 | 1005.6 |
| 20260901184023 | 18 | 270 | 6.4 | 11.3 | 0.00 | 0.00 | 0.00 | 5 | 1005.5 |
| 20260901183507 | 18 | 292 | 6.4 | 9.7 | 0.00 | 0.00 | 0.00 | 5 | 1005.6 |
| 20260901182946 | 18 | 292 | 6.4 | 12.9 | 0.00 | 0.00 | 0.00 | 5 | 1005.8 |
| 20260901182431 | 18 | 270 | 6.4 | 9.7 | 0.00 | 0.00 | 0.00 | 5 | 1005.8 |
| 20260901181910 | 18 | 292 | 4.8 | 6.4 | 0.00 | 0.00 | 0.00 | 5 | 1005.7 |
| 20260901181854 | 18 | 270 | 6.4 | 11.3 | 0.00 | 0.00 | 0.00 | 5 | 1005.8 |
| 20260901181333 | 18 | 292 | 8.0 | 12.9 | 0.00 | 0.00 | 0.00 | 5 | 1005.7 |
| 20260901180814 | 18 | 270 | 6.4 | 11.3 | 0.00 | 0.00 | 0.00 | 5 | 1005.4 |
| 20260901180253 | 18 | 270 | 0.0 | 0.0 | 0.00 | 0.00 | 0.00 | 5 | 1005.6 |
| 20260901180237 | 18 | 270 | 4.8 | 9.7 | 0.00 | 0.00 | 0.00 | 5 | 1005.4 |
| 20260901175716 | 19 | 270 | 0.0 | 4.8 | 0.00 | 0.00 | 0.00 | 5 | 1004.9 |
| 20260901175201 | 19 | 270 | 0.0 | 0.0 | 0.00 | 0.00 | 0.00 | 5 | 1004.9 |
| 20260901174646 | 19 | 247 | 0.0 | 0.0 | 0.00 | 0.00 | 0.00 | 5 | 1005.0 |
| 20260901174125 | 19 | 247 | 0.0 | 0.0 | 0.00 | 0.00 | 0.00 | 4 | 1004.7 |
| 20260901174107 | 19 | 270 | 0.0 | 4.8 | 0.00 | 0.00 | 0.00 | 4 | 1004.7 |
| 20260901173546 | 20 | 270 | 4.8 | 9.7 | 0.00 | 0.00 | 0.00 | 4 | 1005.2 |
| 20260901173031 | 20 | 270 | 4.8 | 9.7 | 0.00 | 0.00 | 0.00 | 4 | 1005.2 |
| 20260901172510 | 20 | 270 | 4.8 | 6.4 | 0.00 | 0.00 | 0.00 | 4 | 1004.5 |
| 20260901172451 | 20 | 270 | 8.0 | 12.9 | 0.00 | 0.00 | 0.00 | 4 | 1005.0 |
| 20260901171931 | 20 | 270 | 8.0 | 12.9 | 0.00 | 0.00 | 0.00 | 4 | 1005.2 |
| 20260901171416 | 20 | 270 | 11.3 | 19.3 | 0.00 | 0.00 | 0.00 | 4 | 1004.8 |
| 20260901170854 | 20 | 270 | 9.7 | 12.9 | 0.00 | 0.00 | 0.00 | 4 | 1005.2 |
| 20260901170837 | 20 | 270 | 8.0 | 17.7 | 0.00 | 0.00 | 0.00 | 4 | 1005.1 |
| 20260901170316 | 20 | 270 | 8.0 | 16.1 | 0.00 | 0.00 | 0.00 | 4 | 1004.5 |
| 20260901165801 | 20 | 270 | 9.7 | 17.7 | 0.00 | 0.00 | 0.00 | 4 | 1003.9 |
| 20260901165246 | 20 | 270 | 11.3 | 19.3 | 0.00 | 0.00 | 0.00 | 4 | 1003.8 |
| 20260901164725 | 21 | 270 | 14.5 | 19.3 | 0.00 | 0.00 | 0.00 | 4 | 1004.0 |
| 20260901164710 | 21 | 270 | 8.0 | 22.5 | 0.00 | 0.00 | 0.00 | 4 | 1003.9 |
| 20260901164155 | 21 | 270 | 9.7 | 17.7 | 0.00 | 0.00 | 0.00 | 4 | 1005.0 |
| 20260901163640 | 21 | 270 | 4.8 | 11.3 | 0.00 | 0.00 | 0.00 | 4 | 1005.0 |
| 20260901163119 | 21 | 270 | 4.8 | 8.0 | 0.00 | 0.00 | 0.00 | 4 | 1005.2 |
| 20260901162557 | 21 | 270 | 0.0 | 0.0 | 0.00 | 0.00 | 0.00 | 4 | 1005.8 |
| 20260901162542 | 21 | 270 | 6.4 | 11.3 | 0.00 | 0.00 | 0.00 | 4 | 1005.5 |
| 20260901162027 | 21 | 270 | 4.8 | 8.0 | 0.00 | 0.00 | 0.00 | 4 | 1005.6 |
| 20260901161506 | 20 | 270 | 8.0 | 16.1 | 0.00 | 0.00 | 0.00 | 4 | 1004.4 |
| 20260901160950 | 20 | 270 | 9.7 | 17.7 | 0.00 | 0.00 | 0.00 | 4 | 1004.6 |
| 20260901160430 | 20 | 247 | 9.7 | 14.5 | 0.00 | 0.00 | 0.00 | 4 | 1004.4 |
| 20260901160413 | 20 | 270 | 14.5 | 22.5 | 0.00 | 0.00 | 0.00 | 4 | 1004.1 |
| 20260901155852 | 21 | 247 | 14.5 | 20.9 | 0.00 | 0.00 | 0.00 | 4 | 1005.6 |
| 20260901155337 | 21 | 225 | 14.5 | 24.1 | 0.00 | 0.00 | 0.00 | 4 | 1003.1 |
| 20260901154822 | 21 | 247 | 16.1 | 25.7 | 0.00 | 0.00 | 0.00 | 4 | 1004.2 |
| 20260901154301 | 21 | 247 | 16.1 | 20.9 | 0.00 | 0.00 | 0.00 | 4 | 1003.8 |
| 20260901154245 | 21 | 270 | 16.1 | 24.1 | 0.00 | 0.00 | 0.00 | 4 | 1003.7 |
| 20260901153724 | 21 | 247 | 12.9 | 24.1 | 0.00 | 0.00 | 0.00 | 4 | 1003.4 |
| 20260901153209 | 21 | 247 | 17.7 | 29.0 | 0.00 | 0.00 | 0.00 | 4 | 1002.8 |
| 20260901152654 | 22 | 270 | 14.5 | 22.5 | 0.00 | 0.00 | 0.00 | 4 | 1004.6 |
| 20260901152133 | 21 | 315 | 16.1 | 19.3 | 0.00 | 0.00 | 0.00 | 4 | 1004.4 |
| 20260901152117 | 21 | 270 | 12.9 | 22.5 | 0.00 | 0.00 | 0.00 | 4 | 1004.8 |
| 20260901151556 | 21 | 315 | 8.0 | 14.5 | 0.00 | 0.00 | 0.00 | 4 | 1004.2 |
| 20260901151041 | 22 | 247 | 4.8 | 8.0 | 0.00 | 0.00 | 0.00 | 4 | 1006.3 |
| 20260901150526 | 21 | 270 | 11.3 | 20.9 | 0.00 | 0.00 | 0.00 | 4 | 1005.6 |
| 20260901150005 | 21 | 247 | 11.3 | 14.5 | 0.00 | 0.00 | 0.00 | 4 | 1003.8 |
| 20260901145942 | 21 | 225 | 14.5 | 22.5 | 0.00 | 0.00 | 0.00 | 4 | 1003.6 |
| 20260901145427 | 22 | 315 | 12.9 | 20.9 | 0.00 | 0.00 | 0.00 | 4 | 1002.4 |
| 20260901144912 | 22 | 270 | 9.7 | 17.7 | 0.00 | 0.00 | 0.00 | 4 | 1004.0 |
| 20260901144351 | 22 | 270 | 4.8 | 8.0 | 0.00 | 0.00 | 0.00 | 4 | 1003.8 |
| 20260901144332 | 22 | 247 | 11.3 | 20.9 | 0.00 | 0.00 | 0.00 | 4 | 1003.2 |
| 20260901143811 | 22 | 270 | 11.3 | 22.5 | 0.00 | 0.00 | 0.00 | 4 | 1003.9 |
| 20260901143257 | 21 | 247 | 9.7 | 16.1 | 0.00 | 0.00 | 0.00 | 4 | 1006.9 |
| 20260901142735 | 21 | 270 | 4.8 | 4.8 | 0.00 | 0.00 | 0.00 | 4 | 1005.1 |
| 20260901142718 | 21 | 270 | 11.3 | 22.5 | 0.00 | 0.00 | 0.00 | 4 | 1005.2 |
| 20260901142157 | 21 | 270 | 14.5 | 25.7 | 0.00 | 0.00 | 0.00 | 4 | 1003.1 |
| 20260901141642 | 21 | 247 | 12.9 | 22.5 | 0.00 | 0.00 | 0.00 | 4 | 1002.9 |
| 20260901141127 | 22 | 270 | 4.8 | 11.3 | 0.00 | 0.00 | 0.00 | 4 | 1005.9 |
| 20260901140606 | 21 | 270 | 3.2 | 4.8 | 0.00 | 0.00 | 0.00 | 4 | 1005.7 |
| 20260901140550 | 21 | 270 | 14.5 | 20.9 | 0.00 | 0.00 | 0.00 | 4 | 1005.5 |
| 20260901140029 | 21 | 270 | 16.1 | 24.1 | 0.00 | 0.00 | 0.00 | 4 | 1005.0 |
| 20260901135514 | 21 | 270 | 16.1 | 24.1 | 0.00 | 0.00 | 0.00 | 4 | 1004.5 |
| 20260901134959 | 20 | 292 | 11.3 | 20.9 | 0.00 | 0.00 | 0.00 | 5 | 1003.1 |
| 20260901134438 | 21 | 270 | 12.9 | 16.1 | 0.00 | 0.00 | 0.00 | 4 | 1005.5 |
| 20260901134422 | 21 | 315 | 11.3 | 20.9 | 0.00 | 0.00 | 0.00 | 5 | 1005.3 |
| 20260901133907 | 21 | 315 | 9.7 | 16.1 | 0.00 | 0.00 | 0.00 | 4 | 1004.6 |
| 20260901133346 | 20 | 270 | 12.9 | 24.1 | 0.00 | 0.00 | 0.00 | 4 | 1004.8 |
| 20260901132831 | 21 | 247 | 14.5 | 24.1 | 0.00 | 0.00 | 0.00 | 4 | 1004.9 |
| 20260901132310 | 21 | 270 | 8.0 | 11.3 | 0.00 | 0.00 | 0.00 | 4 | 1004.7 |
| 20260901132254 | 21 | 270 | 16.1 | 30.6 | 0.00 | 0.00 | 0.00 | 4 | 1004.5 |
| 20260901131733 | 22 | 225 | 9.7 | 17.7 | 0.00 | 0.00 | 0.00 | 4 | 1006.5 |
| 20260901131218 | 22 | 315 | 8.0 | 16.1 | 0.00 | 0.00 | 0.00 | 4 | 1005.0 |
| 20260901130703 | 21 | 270 | 6.4 | 12.9 | 0.00 | 0.00 | 0.00 | 5 | 1007.5 |
| 20260901130142 | 21 | 315 | 0.0 | 0.0 | 0.00 | 0.00 | 0.00 | 5 | 1005.5 |
| 20260901130126 | 20 | 270 | 8.0 | 17.7 | 0.00 | 0.00 | 0.00 | 5 | 1005.1 |
| 20260901125611 | 20 | 315 | 16.1 | 22.5 | 0.00 | 0.00 | 0.00 | 5 | 1004.1 |
| 20260901125050 | 21 | 337 | 9.7 | 19.3 | 0.00 | 0.00 | 0.00 | 5 | 1005.6 |
| 20260901124535 | 20 | 315 | 11.3 | 16.1 | 0.00 | 0.00 | 0.00 | 5 | 1005.4 |
| 20260901124014 | 19 | 315 | 6.4 | 8.0 | 0.00 | 0.00 | 0.00 | 5 | 1004.9 |
| 20260901123958 | 19 | 292 | 12.9 | 20.9 | 0.00 | 0.00 | 0.00 | 5 | 1005.1 |
| 20260901123437 | 20 | 315 | 12.9 | 19.3 | 0.00 | 0.00 | 0.00 | 5 | 1004.7 |
| 20260901122922 | 20 | 315 | 9.7 | 20.9 | 0.00 | 0.00 | 0.00 | 5 | 1004.4 |
| 20260901122407 | 20 | 247 | 14.5 | 24.1 | 0.00 | 0.00 | 0.00 | 5 | 1005.2 |
| 20260901121846 | 20 | 270 | 16.1 | 24.1 | 0.00 | 0.00 | 0.00 | 4 | 1004.8 |
| 20260901121831 | 20 | 270 | 12.9 | 24.1 | 0.00 | 0.00 | 0.00 | 4 | 1004.6 |
| 20260901121316 | 21 | 270 | 12.9 | 22.5 | 0.00 | 0.00 | 0.00 | 5 | 1004.7 |
| 20260901120800 | 21 | 292 | 19.3 | 32.2 | 0.00 | 0.00 | 0.00 | 5 | 1003.0 |
| 20260901120240 | 21 | 225 | 16.1 | 30.6 | 0.00 | 0.00 | 0.00 | 5 | 1003.9 |
| 20260901115718 | 21 | 225 | 8.0 | 11.3 | 0.00 | 0.00 | 0.00 | 5 | 1006.3 |
| 20260901115700 | 21 | 270 | 8.0 | 19.3 | 0.00 | 0.00 | 0.00 | 4 | 1005.8 |
| 20260901115145 | 20 | 270 | 11.3 | 19.3 | 0.00 | 0.00 | 0.00 | 5 | 1007.7 |
| 20260901114624 | 20 | 225 | 14.5 | 29.0 | 0.00 | 0.00 | 0.00 | 5 | 1007.2 |
| 20260901114103 | 20 | 270 | 17.7 | 22.5 | 0.00 | 0.00 | 0.00 | 5 | 1004.1 |
| 20260901114046 | 20 | 247 | 14.5 | 27.4 | 0.00 | 0.00 | 0.00 | 5 | 1003.9 |
| 20260901113531 | 19 | 247 | 16.1 | 29.0 | 0.00 | 0.00 | 0.00 | 5 | 1004.2 |
| 20260901113010 | 21 | 270 | 16.1 | 25.7 | 0.00 | 0.00 | 0.00 | 5 | 1006.9 |
| 20260901112455 | 20 | 292 | 17.7 | 27.4 | 0.00 | 0.00 | 0.00 | 5 | 1005.2 |
| 20260901111934 | 20 | 247 | 16.1 | 22.5 | 0.00 | 0.00 | 0.00 | 5 | 1004.4 |
| 20260901111918 | 20 | 270 | 14.5 | 24.1 | 0.00 | 0.00 | 0.00 | 5 | 1005.1 |
| 20260901111357 | 18 | 292 | 12.9 | 22.5 | 0.00 | 0.00 | 0.00 | 6 | 1006.2 |
| 20260901110842 | 18 | 292 | 12.9 | 24.1 | 0.00 | 0.00 | 0.00 | 6 | 1006.1 |
| 20260901110327 | 18 | 270 | 12.9 | 20.9 | 0.00 | 0.00 | 0.00 | 5 | 1006.2 |
| 20260901105806 | 18 | 292 | 12.9 | 16.1 | 0.00 | 0.00 | 0.00 | 6 | 1006.1 |
| 20260901105743 | 18 | 292 | 8.0 | 16.1 | 0.00 | 0.00 | 0.00 | 6 | 1006.6 |
| 20260901105227 | 18 | 315 | 11.3 | 24.1 | 0.00 | 0.00 | 0.00 | 6 | 1005.6 |
| 20260901104713 | 18 | 292 | 14.5 | 24.1 | 0.00 | 0.00 | 0.00 | 6 | 1006.1 |
| 20260901104151 | 18 | 270 | 16.1 | 19.3 | 0.00 | 0.00 | 0.00 | 6 | 1005.5 |
| 20260901104135 | 18 | 247 | 12.9 | 25.7 | 0.00 | 0.00 | 0.00 | 6 | 1005.6 |
| 20260901103614 | 18 | 292 | 12.9 | 25.7 | 0.00 | 0.00 | 0.00 | 6 | 1005.5 |
| 20260901103059 | 19 | 315 | 14.5 | 24.1 | 0.00 | 0.00 | 0.00 | 6 | 1005.6 |
| 20260901102544 | 18 | 247 | 14.5 | 30.6 | 0.00 | 0.00 | 0.00 | 5 | 1004.8 |
| 20260901102023 | 19 | 270 | 9.7 | 12.9 | 0.00 | 0.00 | 0.00 | 5 | 1006.9 |
| 20260901101959 | 19 | 247 | 16.1 | 32.2 | 0.00 | 0.00 | 0.00 | 5 | 1006.0 |
| 20260901101444 | 18 | 270 | 20.9 | 30.6 | 0.00 | 0.00 | 0.00 | 5 | 1004.4 |
| 20260901100929 | 18 | 270 | 17.7 | 29.0 | 0.00 | 0.00 | 0.00 | 5 | 1005.9 |
| 20260901100408 | 19 | 270 | 19.3 | 25.7 | 0.00 | 0.00 | 0.00 | 5 | 1004.3 |
| 20260901100344 | 19 | 270 | 14.5 | 25.7 | 0.00 | 0.00 | 0.00 | 5 | 1003.8 |
| 20260901095829 | 18 | 247 | 17.7 | 30.6 | 0.00 | 0.00 | 0.00 | 6 | 1005.6 |
| 20260901095314 | 18 | 247 | 19.3 | 30.6 | 0.00 | 0.00 | 0.00 | 6 | 1005.6 |
| 20260901094753 | 18 | 270 | 12.9 | 16.1 | 0.00 | 0.00 | 0.00 | 6 | 1005.1 |
| 20260901094736 | 18 | 270 | 14.5 | 24.1 | 0.00 | 0.00 | 0.00 | 6 | 1004.8 |
| 20260901094221 | 18 | 270 | 19.3 | 33.8 | 0.00 | 0.00 | 0.00 | 6 | 1006.0 |
| 20260901093700 | 18 | 270 | 16.1 | 27.4 | 0.00 | 0.00 | 0.00 | 6 | 1003.8 |
| 20260901093145 | 18 | 270 | 16.1 | 27.4 | 0.00 | 0.00 | 0.00 | 6 | 1005.1 |
| 20260901092624 | 18 | 247 | 6.4 | 11.3 | 0.00 | 0.00 | 0.00 | 6 | 1006.5 |
| 20260901092608 | 18 | 225 | 11.3 | 22.5 | 0.00 | 0.00 | 0.00 | 6 | 1006.5 |
| 20260901092047 | 18 | 270 | 17.7 | 30.6 | 0.00 | 0.00 | 0.00 | 6 | 1005.0 |
| 20260901091532 | 18 | 270 | 14.5 | 24.1 | 0.00 | 0.00 | 0.00 | 6 | 1004.7 |
| 20260901091017 | 17 | 292 | 14.5 | 27.4 | 0.00 | 0.00 | 0.00 | 6 | 1004.4 |
| 20260901090456 | 17 | 270 | 8.0 | 11.3 | 0.00 | 0.00 | 0.00 | 6 | 1005.3 |
| 20260901090440 | 17 | 270 | 16.1 | 29.0 | 0.00 | 0.00 | 0.00 | 6 | 1005.2 |
| 20260901085919 | 17 | 270 | 22.5 | 33.8 | 0.00 | 0.00 | 0.00 | 6 | 1004.9 |
| 20260901085404 | 17 | 270 | 19.3 | 33.8 | 0.00 | 0.00 | 0.00 | 6 | 1004.3 |
| 20260901084849 | 17 | 270 | 17.7 | 32.2 | 0.00 | 0.00 | 0.00 | 6 | 1005.0 |
| 20260901084328 | 17 | 270 | 20.9 | 30.6 | 0.00 | 0.00 | 0.00 | 6 | 1003.5 |
| 20260901084312 | 17 | 270 | 16.1 | 30.6 | 0.00 | 0.00 | 0.00 | 6 | 1004.0 |
| 20260901083751 | 17 | 270 | 14.5 | 30.6 | 0.00 | 0.00 | 0.00 | 6 | 1004.1 |
| 20260901083236 | 17 | 270 | 14.5 | 27.4 | 0.00 | 0.00 | 0.00 | 6 | 1005.6 |
| 20260901082721 | 17 | 270 | 14.5 | 30.6 | 0.00 | 0.00 | 0.00 | 6 | 1004.2 |
| 20260901082200 | 17 | 270 | 6.4 | 9.7 | 0.00 | 0.00 | 0.00 | 7 | 1005.4 |
| 20260901082136 | 16 | 270 | 20.9 | 33.8 | 0.00 | 0.00 | 0.00 | 7 | 1005.5 |
| 20260901081621 | 16 | 225 | 20.9 | 32.2 | 0.00 | 0.00 | 0.00 | 7 | 1004.6 |
| 20260901081106 | 17 | 247 | 17.7 | 30.6 | 0.00 | 0.00 | 0.00 | 6 | 1004.7 |
| 20260901080545 | 17 | 270 | 14.5 | 27.4 | 0.00 | 0.00 | 0.00 | 7 | 1005.9 |
| 20260901080529 | 17 | 292 | 19.3 | 32.2 | 0.00 | 0.00 | 0.00 | 7 | 1005.9 |
| 20260901080014 | 17 | 225 | 14.5 | 24.1 | 0.00 | 0.00 | 0.00 | 6 | 1005.8 |
| 20260901075459 | 16 | 270 | 19.3 | 30.6 | 0.00 | 0.00 | 0.00 | 7 | 1004.3 |
| 20260901074938 | 16 | 270 | 16.1 | 32.2 | 0.00 | 0.00 | 0.00 | 7 | 1003.9 |
| 20260901074417 | 16 | 270 | 11.3 | 16.1 | 0.00 | 0.00 | 0.00 | 7 | 1004.0 |
| 20260901074359 | 16 | 270 | 17.7 | 29.0 | 0.00 | 0.00 | 0.00 | 7 | 1004.5 |
| 20260901073844 | 16 | 270 | 19.3 | 33.8 | 0.00 | 0.00 | 0.00 | 7 | 1004.5 |
| 20260901073323 | 16 | 270 | 16.1 | 25.7 | 0.00 | 0.00 | 0.00 | 7 | 1004.7 |
| 20260901072802 | 16 | 270 | 6.4 | 8.0 | 0.00 | 0.00 | 0.00 | 7 | 1006.4 |
| 20260901072744 | 16 | 247 | 14.5 | 27.4 | 0.00 | 0.00 | 0.00 | 7 | 1005.0 |
| 20260901072228 | 16 | 292 | 17.7 | 30.6 | 0.00 | 0.00 | 0.00 | 7 | 1006.0 |
| 20260901071707 | 16 | 270 | 19.3 | 35.4 | 0.00 | 0.00 | 0.00 | 7 | 1005.2 |
| 20260901071146 | 16 | 270 | 14.5 | 22.5 | 0.00 | 0.00 | 0.00 | 7 | 1006.3 |
| 20260901071130 | 16 | 270 | 20.9 | 27.4 | 0.00 | 0.00 | 0.00 | 7 | 1006.9 |
| 20260901070615 | 16 | 270 | 19.3 | 29.0 | 0.00 | 0.00 | 0.00 | 8 | 1006.0 |
| 20260901070054 | 16 | 270 | 14.5 | 27.4 | 0.00 | 0.00 | 0.00 | 7 | 1006.0 |
| 20260901065539 | 15 | 270 | 16.1 | 30.6 | 0.00 | 0.00 | 0.00 | 8 | 1007.0 |
| 20260901065018 | 15 | 247 | 17.7 | 24.1 | 0.00 | 0.00 | 0.00 | 8 | 1006.4 |
| 20260901065002 | 15 | 270 | 16.1 | 25.7 | 0.00 | 0.00 | 0.00 | 8 | 1006.5 |
| 20260901064441 | 15 | 270 | 17.7 | 25.7 | 0.00 | 0.00 | 0.00 | 8 | 1006.0 |
| 20260901063926 | 15 | 270 | 16.1 | 29.0 | 0.00 | 0.00 | 0.00 | 8 | 1005.8 |
| 20260901063411 | 15 | 270 | 19.3 | 30.6 | 0.00 | 0.00 | 0.00 | 8 | 1006.6 |
| 20260901062850 | 15 | 247 | 11.3 | 16.1 | 0.00 | 0.00 | 0.00 | 8 | 1008.0 |
| 20260901062834 | 15 | 270 | 17.7 | 32.2 | 0.00 | 0.00 | 0.00 | 8 | 1007.3 |
| 20260901062319 | 15 | 270 | 16.1 | 25.7 | 0.00 | 0.00 | 0.00 | 8 | 1007.9 |
| 20260901061804 | 15 | 225 | 19.3 | 29.0 | 0.00 | 0.00 | 0.00 | 8 | 1008.8 |
| 20260901061243 | 14 | 247 | 20.9 | 30.6 | 0.00 | 0.00 | 0.00 | 9 | 1008.4 |
| 20260901060722 | 14 | 247 | 16.1 | 20.9 | 0.00 | 0.00 | 0.00 | 9 | 1008.3 |
| 20260901060707 | 14 | 247 | 20.9 | 32.2 | 0.00 | 0.00 | 0.00 | 9 | 1008.3 |
| 20260901060152 | 14 | 270 | 16.1 | 24.1 | 0.00 | 0.00 | 0.00 | 9 | 1007.8 |
| 20260901055631 | 13 | 225 | 19.3 | 32.2 | 0.00 | 0.00 | 0.00 | 9 | 1008.0 |
| 20260901055115 | 13 | 247 | 19.3 | 30.6 | 0.00 | 0.00 | 0.00 | 9 | 1009.1 |
| 20260901054554 | 13 | 225 | 14.5 | 19.3 | 0.00 | 0.00 | 0.00 | 9 | 1008.4 |
| 20260901054539 | 13 | 225 | 19.3 | 32.2 | 0.00 | 0.00 | 0.00 | 9 | 1008.3 |
| 20260901054018 | 13 | 225 | 17.7 | 29.0 | 0.00 | 0.00 | 0.00 | 9 | 1007.9 |
| 20260901053502 | 13 | 247 | 17.7 | 27.4 | 0.00 | 0.00 | 0.00 | 9 | 1007.6 |
| 20260901052948 | 13 | 225 | 17.7 | 29.0 | 0.00 | 0.00 | 0.00 | 9 | 1007.9 |
| 20260901052427 | 13 | 247 | 17.7 | 24.1 | 0.00 | 0.00 | 0.00 | 9 | 1008.5 |
| 20260901052411 | 13 | 225 | 16.1 | 27.4 | 0.00 | 0.00 | 0.00 | 9 | 1008.4 |
| 20260901051850 | 13 | 247 | 17.7 | 30.6 | 0.00 | 0.00 | 0.00 | 9 | 1008.6 |
| 20260901051335 | 13 | 247 | 17.7 | 30.6 | 0.00 | 0.00 | 0.00 | 9 | 1008.6 |
| 20260901050820 | 13 | 247 | 17.7 | 27.4 | 0.00 | 0.00 | 0.00 | 9 | 1008.2 |
| 20260901050259 | 13 | 225 | 12.9 | 16.1 | 0.00 | 0.00 | 0.00 | 9 | 1008.8 |
| 20260901050243 | 13 | 225 | 14.5 | 24.1 | 0.00 | 0.00 | 0.00 | 9 | 1008.6 |
| 20260901045722 | 13 | 247 | 12.9 | 24.1 | 0.00 | 0.00 | 0.00 | 9 | 1008.7 |
| 20260901045207 | 13 | 270 | 14.5 | 24.1 | 0.00 | 0.00 | 0.00 | 9 | 1008.7 |
| 20260901044652 | 12 | 270 | 14.5 | 25.7 | 0.00 | 0.00 | 0.00 | 9 | 1009.1 |
| 20260901044131 | 13 | 270 | 12.9 | 17.7 | 0.00 | 0.00 | 0.00 | 9 | 1009.0 |
| 20260901044107 | 13 | 225 | 14.5 | 27.4 | 0.00 | 0.00 | 0.00 | 9 | 1008.4 |
| 20260901043552 | 13 | 270 | 12.9 | 24.1 | 0.00 | 0.00 | 0.00 | 9 | 1008.9 |
| 20260901043037 | 13 | 270 | 14.5 | 25.7 | 0.00 | 0.00 | 0.00 | 9 | 1008.7 |
| 20260901042516 | 13 | 225 | 16.1 | 20.9 | 0.00 | 0.00 | 0.00 | 9 | 1009.0 |
| 20260901042452 | 12 | 270 | 17.7 | 30.6 | 0.00 | 0.00 | 0.00 | 9 | 1008.7 |
| 20260901041937 | 13 | 270 | 16.1 | 29.0 | 0.00 | 0.00 | 0.00 | 9 | 1009.0 |
| 20260901041422 | 13 | 247 | 16.1 | 25.7 | 0.00 | 0.00 | 0.00 | 9 | 1008.4 |
| 20260901040901 | 13 | 270 | 14.5 | 17.7 | 0.00 | 0.00 | 0.00 | 9 | 1008.3 |
| 20260901040844 | 13 | 247 | 16.1 | 25.7 | 0.00 | 0.00 | 0.00 | 9 | 1008.1 |
| 20260901040329 | 12 | 247 | 16.1 | 25.7 | 0.00 | 0.00 | 0.00 | 9 | 1008.2 |
| 20260901035814 | 13 | 225 | 12.9 | 24.1 | 0.00 | 0.00 | 0.00 | 9 | 1008.4 |
| 20260901035253 | 13 | 247 | 14.5 | 25.7 | 0.00 | 0.00 | 0.00 | 9 | 1009.2 |
| 20260901034732 | 13 | 225 | 11.3 | 14.5 | 0.00 | 0.00 | 0.00 | 9 | 1008.8 |
| 20260901034714 | 13 | 247 | 11.3 | 19.3 | 0.00 | 0.00 | 0.00 | 9 | 1008.6 |
| 20260901034159 | 13 | 247 | 11.3 | 17.7 | 0.00 | 0.00 | 0.00 | 9 | 1008.2 |
| 20260901033638 | 13 | 247 | 14.5 | 22.5 | 0.00 | 0.00 | 0.00 | 9 | 1008.3 |
| 20260901033117 | 13 | 247 | 11.3 | 14.5 | 0.00 | 0.00 | 0.00 | 9 | 1008.2 |
| 20260901033100 | 13 | 247 | 12.9 | 22.5 | 0.00 | 0.00 | 0.00 | 9 | 1008.3 |
| 20260901032545 | 13 | 225 | 14.5 | 24.1 | 0.00 | 0.00 | 0.00 | 9 | 1008.3 |
| 20260901032024 | 13 | 225 | 12.9 | 24.1 | 0.00 | 0.00 | 0.00 | 9 | 1008.1 |
| 20260901031509 | 13 | 270 | 12.9 | 20.9 | 0.00 | 0.00 | 0.00 | 8 | 1008.1 |
| 20260901030948 | 13 | 247 | 12.9 | 16.1 | 0.00 | 0.00 | 0.00 | 9 | 1008.2 |
| 20260901030932 | 13 | 247 | 11.3 | 22.5 | 0.00 | 0.00 | 0.00 | 8 | 1008.6 |
| 20260901030411 | 13 | 270 | 11.3 | 19.3 | 0.00 | 0.00 | 0.00 | 8 | 1007.8 |
| 20260901025856 | 13 | 270 | 9.7 | 20.9 | 0.00 | 0.00 | 0.00 | 8 | 1008.2 |
| 20260901025341 | 13 | 270 | 9.7 | 16.1 | 0.00 | 0.00 | 0.00 | 8 | 1008.2 |
| 20260901024820 | 13 | 270 | 9.7 | 14.5 | 0.00 | 0.00 | 0.00 | 8 | 1008.0 |
| 20260901024804 | 13 | 270 | 9.7 | 17.7 | 0.00 | 0.00 | 0.00 | 8 | 1008.1 |
| 20260901024243 | 13 | 270 | 11.3 | 19.3 | 0.00 | 0.00 | 0.00 | 8 | 1008.5 |
| 20260901023728 | 13 | 270 | 12.9 | 20.9 | 0.00 | 0.00 | 0.00 | 8 | 1008.1 |
| 20260901023213 | 13 | 270 | 14.5 | 20.9 | 0.00 | 0.00 | 0.00 | 8 | 1008.2 |
| 20260901022652 | 13 | 270 | 16.1 | 22.5 | 0.00 | 0.00 | 0.00 | 8 | 1008.0 |
| 20260901022636 | 13 | 270 | 14.5 | 24.1 | 0.00 | 0.00 | 0.00 | 8 | 1008.2 |
| 20260901022115 | 13 | 270 | 11.3 | 19.3 | 0.00 | 0.00 | 0.00 | 8 | 1007.8 |
| 20260901021600 | 13 | 270 | 11.3 | 20.9 | 0.00 | 0.00 | 0.00 | 8 | 1007.7 |
| 20260901021045 | 14 | 270 | 11.3 | 22.5 | 0.00 | 0.00 | 0.00 | 8 | 1007.1 |
| 20260901020524 | 14 | 270 | 6.4 | 8.0 | 0.00 | 0.00 | 0.00 | 8 | 1008.2 |
| 20260901020508 | 14 | 270 | 12.9 | 19.3 | 0.00 | 0.00 | 0.00 | 8 | 1007.8 |
| 20260901015947 | 14 | 292 | 14.5 | 24.1 | 0.00 | 0.00 | 0.00 | 8 | 1007.8 |
| 20260901015432 | 14 | 270 | 12.9 | 20.9 | 0.00 | 0.00 | 0.00 | 8 | 1007.5 |
| 20260901014917 | 14 | 270 | 14.5 | 24.1 | 0.00 | 0.00 | 0.00 | 8 | 1007.4 |
| 20260901014356 | 14 | 247 | 9.7 | 12.9 | 0.00 | 0.00 | 0.00 | 8 | 1007.7 |
| 20260901014332 | 14 | 270 | 11.3 | 20.9 | 0.00 | 0.00 | 0.00 | 8 | 1007.5 |
| 20260901013818 | 14 | 270 | 12.9 | 22.5 | 0.00 | 0.00 | 0.00 | 8 | 1007.0 |
| 20260901013302 | 14 | 270 | 14.5 | 27.4 | 0.00 | 0.00 | 0.00 | 8 | 1007.1 |
| 20260901012741 | 14 | 270 | 11.3 | 17.7 | 0.00 | 0.00 | 0.00 | 8 | 1007.9 |
| 20260901012717 | 14 | 247 | 16.1 | 29.0 | 0.00 | 0.00 | 0.00 | 8 | 1007.4 |
| 20260901012202 | 14 | 225 | 14.5 | 25.7 | 0.00 | 0.00 | 0.00 | 8 | 1006.7 |
| 20260901011647 | 14 | 270 | 17.7 | 24.1 | 0.00 | 0.00 | 0.00 | 8 | 1007.3 |
| 20260901011126 | 14 | 247 | 12.9 | 20.9 | 0.00 | 0.00 | 0.00 | 8 | 1007.7 |
| 20260901011109 | 14 | 247 | 12.9 | 22.5 | 0.00 | 0.00 | 0.00 | 8 | 1007.4 |
| 20260901010548 | 14 | 247 | 12.9 | 24.1 | 0.00 | 0.00 | 0.00 | 7 | 1007.2 |
| 20260901010033 | 14 | 225 | 12.9 | 22.5 | 0.00 | 0.00 | 0.00 | 8 | 1005.9 |
| 20260901005518 | 14 | 247 | 12.9 | 17.7 | 0.00 | 0.00 | 0.00 | 8 | 1006.2 |
| 20260901004957 | 14 | 270 | 9.7 | 12.9 | 0.00 | 0.00 | 0.00 | 8 | 1005.6 |
| 20260901004941 | 14 | 247 | 14.5 | 20.9 | 0.00 | 0.00 | 0.00 | 8 | 1005.6 |